Home   Weather   Fayetteville   Past weeks
Flag for USA

Past Weather in Fayetteville, Georgia, USA — Yesterday and Last 2 Weeks

Now
60 °F

Partly sunny.


Feels Like: 60 °F
Forecast: 77 / 55 °F
Wind: 3 mph from Northwest

Location: Peachtree City-Falcon Field

Current Time: Oct 14, 2019 at 9:56:23 am

Latest Report: Oct 14, 2019 at 8:53 am


Visibility: 10 mi

Pressure: 30.13 "Hg

Humidity: 80%

Dew Point: 54 °F

Location of FayettevilleLocation

Past Weather in Fayetteville — Graph

°F

Fayetteville Temperature Yesterday

Maximum temperature yesterday: 73 °F (at 12:53 pm)
Minimum temperature yesterday: 63 °F (at 4:53 am)
Average temperature yesterday: 68 °F

High & Low Weather Summary for the Past Weeks

 TemperatureHumidityPressure
High99 °F (Oct 3, 3:53 pm)96% (Oct 14, 2:53 am)30.24 "Hg (Oct 14, 2:53 am)
Low54 °F (Oct 11, 7:53 am)27% (Oct 4, 3:53 pm)29.95 "Hg (Oct 4, 4:53 pm)
Average74 °F75%30.08 "Hg
* Reported Sep 29 7:53 am — Oct 14 7:53 am, Fayetteville. Weather by CustomWeather, © 2019

Note: Actual official high and low records may vary slightly from our data, if they occured in-between our weather recording intervals... More about our weather records

Advertising

Fayetteville Weather History for the Previous 24 Hours

Scroll right to see more
 ConditionsComfort  
Time TempWeatherWind HumidityBarometerVisibility
7:53 am
Mon, Oct 14
60 °FOvercast.6 mph86%30.11 "Hg10 mi
6:53 am61 °FOvercast.7 mph83%30.10 "Hg10 mi
5:53 am62 °FOvercast.3 mph86%30.08 "Hg10 mi
4:53 am62 °FLow clouds.3 mph90%30.06 "Hg10 mi
3:53 am60 °FClear.3 mph93%30.06 "Hg9 mi
2:53 am60 °FClear.3 mph96%30.05 "Hg7 mi
1:53 am61 °FPassing clouds.3 mph93%30.05 "Hg10 mi
12:53 am61 °FClear.No wind93%30.07 "Hg10 mi
11:53 pm
Sun, Oct 13
63 °FPassing clouds.9 mph87%30.08 "Hg10 mi
10:53 pm65 °FLight rain. Low clouds.9 mph91%30.07 "Hg10 mi
9:53 pm66 °FLight rain. Partly cloudy.5 mph90%30.07 "Hg10 mi
8:53 pm67 °FLight rain. Overcast.3 mph93%30.07 "Hg7 mi
7:53 pm67 °FLight rain. Mostly cloudy.No wind93%30.06 "Hg10 mi
6:53 pm68 °FPartly sunny.3 mph87%30.03 "Hg10 mi
5:53 pm69 °FBroken clouds.No wind81%30.03 "Hg10 mi
5:34 pm69 °FLight rain. More clouds than sun.3 mph81%30.06 "Hg10 mi
5:22 pm68 °FMostly cloudy.3 mph84%30.06 "Hg10 mi
4:53 pm68 °FLow clouds.5 mph84%30.06 "Hg10 mi
4:26 pm68 °FLow clouds.6 mph84%30.07 "Hg10 mi
3:53 pm70 °FMostly cloudy.12 mph81%30.04 "Hg10 mi
3:28 pm71 °FCloudy.3 mph81%30.04 "Hg10 mi
3:04 pm70 °FOvercast.7 mph84%30.06 "Hg7 mi
2:53 pm71 °FOvercast.6 mph78%30.04 "Hg8 mi
1:53 pm73 °FOvercast.7 mph76%30.04 "Hg10 mi
12:53 pm73 °FPartly sunny.8 mph71%30.05 "Hg10 mi
12:02 pm71 °FOvercast.No wind73%30.08 "Hg10 mi
10:53 am69 °FCloudy.7 mph79%30.08 "Hg10 mi
9:53 am68 °FOvercast.6 mph82%30.06 "Hg10 mi
9:27 am67 °FOvercast.No wind85%30.08 "Hg10 mi
9:20 am67 °FMostly cloudy.No wind81%30.08 "Hg10 mi
Weather by CustomWeather, © 2019

See weather overview